Lid_Strength_Index
2 2 -0 -1 -1 -1 -1 -1 -1 -1 -1 -1 -1 -1 -1 -1 -1 -1 -1 -1 -1 -1 -1 -1 -1 -1 -1 -1 -1 -1 -1 -1 -1 -1 -1 -1 -2 -2 -2 -1 -1 -0 -1
4 1 -1 -2 -2 -1 -1 -1 -1 -1 -1 -1 -1 -1 -1 -1 -1 -1 -1 -1 -1 -1 -1 -1 -1 -1 -1 -1 -1 -1 -1 -1 -1 -1 -1 -1 -1 -2 -1 -1 -1 -1 -1
5 3 1 -1 -2 -1 -1 -1 -1 -1 -1 -1 -1 -1 -1 -1 -1 -1 -1 -1 -1 -1 -1 -1 -1 -1 -1 -1 -1 -1 -1 -1 -1 -1 -1 0 0 -1 -1 -1 -1 -1 -1
6 4 -0 -1 -1 -2 -2 -1 -1 -1 -1 -2 -1 -1 -1 -1 -1 -1 -1 -1 -1 -1 -1 -1 -1 -1 -1 -1 -1 -1 -1 -1 -1 -1 0 0 -0 -1 -1 -1 -1 -1 -1
7 5 1 -1 -2 -1 -1 -1 -2 -1 -1 -1 -1 -1 -1 -1 -1 -1 -1 -1 -2 -1 -1 -1 -1 -1 -1 -1 -1 -1 -1 -1 -1 -1 1 1 0 -1 -1 -1 -1 -1 -1
8 6 3 -0 -1 -2 -1 -1 -1 -1 -1 -1 -1 -1 -1 -1 -1 -1 -2 -2 -1 -1 -1 -1 -1 -1 -1 -1 -1 -1 -1 -1 -1 1 1 -0 0 -1 -1 -1 -1 -1 -1
9 8 6 2 -0 -1 -2 -1 -1 -1 -1 -1 -1 -1 -1 -1 -1 -1 -1 -1 -1 -1 -1 -1 -1 -1 -1 -1 -1 -1 -0 -1 1 1 1 1 0 -1 -1 -1 -1 -1 -1
9 9 7 5 3 2 -0 -1 -1 -1 -2 -1 -1 -1 -1 -1 -1 -2 -1 -1 -1 -1 -1 -1 -1 -1 -1 -1 -1 -1 -1 -1 1 2 1 1 -0 -1 -1 -1 -1 -1 -1
7 8 10 7 6 5 3 0 -1 -1 -1 -1 -1 -1 -1 -1 -1 -1 -1 -1 -1 -1 -1 -1 -1 -1 -1 -1 -1 -1 -1 -0 2 2 1 1 -1 -2 -2 -1 -1 -1 -1
8 8 8 7 10 9 8 3 2 0 -1 -1 -1 -0 0 0 -0 -1 -1 -1 -1 -1 -1 -1 -1 -1 -1 -1 -1 -1 -1 -0 2 2 1 1 -1 -2 -2 -1 -1 -1 -1
8 9 8 8 8 8 8 5 5 4 2 0 0 1 1 0 0 0 0 0 -1 -1 -1 -1 -1 -1 -1 -1 -1 -1 -1 2 3 2 1 -1 -1 -2 -2 -2 -1 -1 -1
10 9 8 8 8 8 6 8 8 6 4 1 -0 0 0 0 0 -0 1 1 -0 -1 -1 -1 -1 -1 -0 1 1 -0 1 2 3 3 2 -1 -2 -2 -2 -2 -2 -2 -2
9 8 7 7 7 8 7 7 7 7 7 4 1 0 0 0 1 1 1 1 0 1 0 -0 -0 -0 0 1 1 1 1 2 3 4 3 -1 -2 -2 -2 -2 -2 -2 -2
8 7 7 7 7 6 6 7 7 6 5 6 5 1 -0 0 1 1 1 1 1 0 0 1 0 0 1 1 1 2 1 2 3 3 4 0 -1 -2 -2 -2 -2 -2 -2
8 8 8 7 7 6 7 6 6 7 6 5 6 3 0 1 0 0 1 1 1 1 0 0 0 0 1 1 2 1 1 2 3 3 4 2 -1 -2 -2 -2 -2 -2 -2
8 8 7 7 7 7 7 7 7 7 6 6 5 4 4 2 -0 0 0 1 1 1 0 -0 0 1 1 1 2 2 2 1 2 2 3 2 1 -1 -2 -2 -2 -2 -2
8 8 8 7 7 8 8 8 7 7 6 6 6 5 4 2 2 0 0 0 0 1 1 0 0 0 1 1 1 2 2 2 2 2 2 3 2 1 -1 -2 -2 -2 -2
9 8 8 7 8 8 8 8 7 7 7 7 7 6 5 4 3 1 1 0 -0 -0 0 1 1 1 1 2 2 1 2 2 3 2 2 2 2 1 1 -1 -1 -2 -2
9 9 9 8 8 8 8 8 8 7 8 7 7 7 6 5 4 2 1 0 -0 0 0 0 1 1 1 1 2 1 2 2 3 3 3 3 3 2 2 1 -0 -0 -1
9 9 9 8 8 8 8 8 8 8 8 7 7 7 6 6 5 4 2 1 0 0 1 1 1 1 1 1 1 1 1 2 2 3 3 3 3 3 2 2 2 1 -0
10 10 9 9 9 8 9 9 9 9 8 7 7 6 6 6 5 4 3 1 0 1 1 1 1 2 2 1 2 2 2 2 3 3 3 3 4 4 3 2 2 2 2
10 10 9 9 7 7 6 7 8 7 7 7 6 5 5 5 4 4 2 1 1 1 1 1 1 2 2 1 3 3 5 4 3 3 3 3 3 3 4 3 2 3 3
10 10 9 8 7 5 4 5 6 6 7 6 6 5 4 3 3 3 2 2 1 1 1 2 2 2 3 2 1 3 6 7 4 3 3 3 3 3 3 3 3 3 3
9 9 9 8 6 5 4 4 5 6 6 6 6 6 6 5 4 3 2 1 1 1 1 1 1 1 2 3 2 2 2 3 6 6 4 3 2 3 3 3 3 3 3
9 9 9 8 7 7 6 6 6 6 6 7 7 7 6 5 4 3 3 2 2 1 1 1 1 2 1 2 3 3 2 3 3 5 6 4 3 2 2 2 1 2 2
10 11 10 9 8 8 7 7 7 7 7 7 7 7 6 5 4 4 3 3 3 2 2 2 1 1 1 2 2 2 3 4 4 4 5 5 4 3 2 1 1 1 2